Location: Unspecified
(0.0000°N, 0.0000°E)
Time: 21:00:13
(UTC+00:00)

ALSAT 1N - Visible Passes

Search period start: 04 June 2023 00:00
Search period end: 14 June 2023 00:00
Orbit: 655 x 696 km, 97.9° (Epoch: 04 June)

Date Brightness Start Highest point End Pass type
(mag) Time Alt. Az. Time Alt. Az. Time Alt. Az.
04 Jun ? 18:57:15 13° ENE 18:57:15 13° ENE 18:59:05 10° NE visible
04 Jun ? 20:35:35 24° WNW 20:35:35 24° WNW 20:38:02 10° NW visible
05 Jun ? 19:32:06 35° ENE 19:32:06 35° ENE 19:35:40 10° NNE visible
06 Jun ? 20:06:58 50° NNW 20:06:58 50° NNW 20:10:26 10° NNW visible
07 Jun ? 19:03:29 16° ENE 19:03:29 16° ENE 19:06:01 10° NE visible
07 Jun ? 20:41:49 20° WNW 20:41:49 20° WNW 20:43:59 10° NW visible
08 Jun ? 19:38:20 42° NE 19:38:20 42° NE 19:42:04 10° N visible
09 Jun ? 20:13:11 45° NW 20:13:11 45° NW 20:16:35 10° NNW visible
10 Jun ? 19:09:42 19° ENE 19:09:42 19° ENE 19:12:43 10° NNE visible
10 Jun ? 20:48:01 17° WNW 20:48:01 17° WNW 20:49:48 10° NW visible
11 Jun ? 19:44:32 51° NE 19:44:32 51° NE 19:48:22 10° N visible
12 Jun ? 20:19:23 39° WNW 20:19:23 39° WNW 20:22:41 10° NNW visible
13 Jun ? 19:15:54 23° ENE 19:15:54 23° ENE 19:19:17 10° NNE visible
13 Jun ? 20:54:13 14° WNW 20:54:13 14° WNW 20:55:30 10° WNW visible
